カタログに戻る

CZ-4 DEB

運用中SSO
NORAD 20797·DEBRIS·🇨🇳 China

打ち上げ Sep 3, 1990 から Taiyuan Satellite Launch Center

Loading…

次のパス (今後24時間)

TLE

最新Source: Space-Track

元期: Sep 14, 2026, 05:13 UTC

1 20797U 90081G   26257.21791848  .00000491  00000-0  25909-3 0  9997
2 20797  98.8145 242.7520 0007219 234.3706 190.9757 14.18471200854326

AllMySatでCZ-4 DEBをリアルタイム追跡

Download on the App Store